Regional Weather Roundup
Issued by NWS Wakefield, VA

Home | Current Version | Previous Version | Graphics & Text | Print | Product List | Glossary On
Versions: 1 2 3 4 5 6 7 8 9 10 11 12 13 14 15 16 17 18 19 20 21 22 23 24 25 26 27
000
ASUS41 KAKQ 021015
RWRAKQ

REGIONAL WEATHER ROUNDUP
NATIONAL WEATHER SERVICE WAKEFIELD VA
600 AM EDT MON MAY 02 2016

Note: "fair" indicates few or no clouds below 12,000 feet with no
significant weather and/or obstructions to visibility. * = Denotes
station may not report precipitation (e.g., rain,snow,etc.),
thunder or fog.

VAZ042-051-052>054-056-021100-
NORTHERN VIRGINIA

CITY           SKY/WX    TMP DP  RH WIND       PRES   REMARKS
WASH NATIONAL  DRIZZLE   55  54  96 N5        29.98R FOG
DULLES         FOG       54  54 100 E7        29.95S VSB 3/4
FORT BELVOIR   CLOUDY    55  54  94 CALM      29.96S FOG
QUANTICO       CLOUDY    58  57  97 NE3       29.97R FOG
FREDERICKSBRG* CLOUDY    58  58 100 CALM      29.95S FOG
STAFFORD*      FOG       56  55  97 CALM      29.99F VSB 1
WARRENTON      CLOUDY    57  53  86 CALM      29.95S FOG
CULPEPER*      FOG       57  57 100 CALM      29.96S VSB 1/2
MANASSAS*      CLOUDY    55  55 100 CALM      29.95F
LEESBURG*      FOG       55  55 100 SE6       29.95F VSB 1/2
WINCHESTER     FOG       55  55 100 CALM      29.94R VSB 1/2
FRONT ROYAL*   CLOUDY    55  55 100 CALM      29.93R VSB 1/4
LURAY*         FOG       57  57 100 S3        29.94S VSB 1/4
$$

VAZ048-049-060>072-079>083-021100-
CENTRAL AND SOUTH CENTRAL VIRGINIA

CITY           SKY/WX    TMP DP  RH WIND       PRES   REMARKS
RICHMOND       MOCLDY    62  62 100 S3        29.93S
CHESTERFIELD*  PTSUNNY   63  52  67 CALM      29.95F
PETERSBURG*    FAIR      65  65 100 S3        29.94F
HANOVER        CLOUDY    63  32  31 CALM      29.95S
TAPPAHANNOCK*  FOG       60  60 100 CALM      29.94S VSB 1/4
QUINTON*       CLOUDY    64  64 100 MISG      29.93S
CHARLOTTSVILLE FOG       60  59  96 CALM      29.94F VSB 1/4
GORDONSVILLE*  FOG       59  59 100 CALM      29.94F VSB 3/4
ORANGE*        CLOUDY    59  59 100 CALM      29.97S FOG
LOUISA*        FOG       63  63 100 CALM      29.94S VSB 1/4
BUMPASS*       CLOUDY    60  60 100 CALM      29.95S VSB 1/4
FARMVILLE*     CLOUDY    63  63 100 CALM      29.93S FOG
CREWE*         PTSUNNY   63  63 100 CALM      29.94S
FORT PICKETT*  NOT AVBL
CHASE CITY*    FAIR      63  61  94 CALM      29.96R
CLARKSVILLE*   PTSUNNY   64  64 100 S3        29.96R
SOUTH HILL*    FAIR      62  62 100 CALM      30.01S
LAWRENCEVILLE* FAIR      63  63 100 CALM      29.95S
EMPORIA*         N/A     64  64 100 S3        29.97S
$$

VAZ088>098-021100-
SOUTHEAST VIRGINIA

CITY           SKY/WX    TMP DP  RH WIND       PRES   REMARKS
NORFOLK        FAIR      67  64  90 SW12      29.95F
VIRGINIA BEACH CLOUDY    70  64  81 SW8       29.95F
NORFOLK NAVAL  MOCLDY    68  65  90 S9        29.96F
WEST POINT*    CLOUDY    65  65  99 CALM      29.94R
SALUDA*        PTSUNNY   63  63 100 S8        29.91F
NEWPORT NEWS   CLOUDY    67  65  93 SW9       29.94F
LANGLEY AFB    MOCLDY    67  66  96 SW7       29.94F
FORT EUSTIS    CLOUDY    67  67 100 SW3       29.93F
WILLIAMSBURG*  MOCLDY    68  66  94 SW3       29.95S
HR EXEC AP*    CLOUDY    66  64  94 SW7       29.98S
FRANKLIN*      CLOUDY    67  65  91 S8        29.96F
US460-WAKEFLD  CLOUDY    68  65  90 S3        29.95S
$$

VAZ020-022-025-037-045-021100-
WEST CENTRAL AND SOUTHWEST VIRGINIA

CITY           SKY/WX    TMP DP  RH WIND       PRES   REMARKS
STAUNTON*      FAIR      56  56 100 W3        29.96F
WAYNESBORO*    FAIR      55  54  96 MISG      29.95F
HOT SPRINGS VA CLOUDY    57  57 100 SW17      30.01F
LYNCHBURG      FAIR      56  56 100 CALM      29.96F FOG
DANVILLE       MOCLDY    63  63 100 S5        29.97R
SOUTH BOSTON*  FAIR      64  63  95 SW3       29.96R
MARTINSVILLE   CLOUDY    61  61  98 CALM      30.00S
ROANOKE        FOG       60  60 100 CALM      29.99S VSB 1/4
BLACKSBURG     FOG       55  55 100 CALM      30.04S VSB 1/4
DUBLIN*        FOG       55  55 100 CALM      30.02F VSB 1/2
MARION*        CLOUDY    65  62  89 W10       30.05S
HILLSVILLE*    FAIR      59  59  99 CALM      30.03S
RICHLANDS*     CLOUDY    63  46  53 SW8       30.04R
WISE*          FAIR      61  61 100 SW5       30.04S
ABINGDON*      RAIN      67  64  93 W6        30.03R
$$

MDZ021>025-VAZ099-100-021100-
SOUTHERN MARYLAND AND THE DELMARVA PENINSULA

CITY           SKY/WX    TMP DP  RH WIND       PRES   REMARKS
PATUXENT RIVER CLOUDY    57  55  93 SE6       29.94S FOG
BAY BRIDGE APT NOT AVBL
LEONARDTOWN    CLOUDY    55  54  94 CALM      29.97R
DOVER          MOCLDY    52  52 100 E8        29.97S
GEORGETOWN     CLOUDY    50  50 100 E8        29.97F FOG
EASTON         CLOUDY   N/A N/A N/A E6        29.99S HAZE
CAMBRIDGE      CLOUDY    54  52  94 CALM      29.95R
SALISBURY      CLOUDY    53  53 100 E7        29.96R
OCEAN CITY     CLOUDY    52  51  97 NE6       29.98R
WALLOPS ISLAND CLOUDY    55  53  93 E10       29.95F FOG
ACCOMACK*      CLOUDY    57  45  62 S7        29.94F HAZE
$$

NCZ012>017-030>032-021100-
NORTH CENTRAL AND EASTERN NORTH CAROLINA

CITY           SKY/WX    TMP DP  RH WIND       PRES   REMARKS
ROANOKE RAPIDS FAIR      64  64 100 SW7       29.97S
RALEIGH        CLOUDY    67  65  93 SW8       29.98S
ELIZABETH CITY CLOUDY    68  66  93 SW10      29.98F
AHOSKIE*       CLOUDY    65  64  96 CALM      29.98S
EDENTON*       CLOUDY    69  69 100 CALM      30.00R
CURRITUCK*     CLOUDY    68  68 100 SW5       29.98F
KILL DEVIL HLS CLOUDY    68  67  97 SW7       29.98F
MANTEO         NOT AVBL
CAPE HATTERAS  CLOUDY    68  67  96 SW5       30.03R
TARBORO*       CLOUDY    68  66  92 SW3       29.99S
GOLDSBORO      MOCLDY    70  70 100 VRB6      29.97F
WASHINGTON     CLOUDY    67  66  96 SW6       29.99F
GREENVILLE     CLOUDY    70  68  94 SW9       30.01R
NEW BERN       MOCLDY    68  66  93 S6        30.02S
WILMINGTON     MOCLDY    69  68  96 S5        30.03S
$$

VAZ048-021100-
ELSEWHERE

CITY           SKY/WX    TMP DP  RH WIND       PRES   REMARKS
HARRISBURG PA  DRIZZLE   51  49  92 E7        29.94F FOG
BALTIMORE      DRZL/FOG  54  53  97 E6        29.97R VSB 3/4
ANNAPOLIS      CLOUDY    55  54  96 E5        29.96R FOG
ANDREWS AFB    FOG       54  54  99 NE5       29.95S VSB 1/4
PHILADELPHIA   CLOUDY    48  45  89 E8        30.00R
HENDERSON NC   CLOUDY    65  65 100 SW5       29.98R
GREENSBORO     CLOUDY    65  64  97 SW8       29.98S
ROCKY MOUNT    CLOUDY    67  66  97 S7        29.98S
$$

VAZ100-021100-
MARINE

STATION/POSITION TIME  TEMP    WIND        PRES    WAVE   SWELL
                       AIR SEA DIR/SP/G            HT/PER HT/PER
                 (UTC) (F)     (DEG/KT/KT) (MB)    (FT/S) (FT/S)
BRANDYWINE LGT   0900   50      80/ 10/ 12 1015.3R
CAPE MAY NJ      0900   50 57   70/  7/ 11 1014.8F
LEWES DE         0900   51 55   80/ 14/ 16 1014.7F
15NM E FENWICK I 0950   51 51              1014.5F   4/ 9
OCEAN-CITY-INLET 0900   52 54   80/  9/ 12 1013.4F
WACHAPREAGUE VA  0900   56 59  100/  2/  6 1013.9F
THOMAS POINT MD  1000   55 57   90/  7/  9 1015.7R
GOOSES REEF MD   1000   56 57   80/  4/  6 1015.4S   1
COVE POINT MD    0900   56     160/  5/  7 1014.6R
SOLOMONS ISLAND  0900   57 59  110/  7/  8   N/A
BISHOPS HEAD MD  0900   56 58   90/  8/ 12 1013.2S
PINEY POINT MD   0900          100/  8/ 10   N/A
POTOMAC MD       1000   58 58   80/  4/  4 1012.7F   1
CAMBRIDGE MD     0900   55 60   70/  7/  8 1013.6R
LEWISETTA VA     0900   58 60  110/ 10/ 11 1012.8F
RAPPAHANNOCK LGT 0900          180/ 11/ 12 1014.5F
STINGRAY PT      0900   61 60  140/  4/  4 1014.1F   0
YORK RVR RNG VA  0900   65     220/ 17/ 18 1013.1F
YORKTOWN VA      0900   67 62  210/ 12/ 16 1013.5F
JAMESTOWN VA     1000   67 65  200/  8/ 10   N/A
DOMINION TERM VA 0900   65     210/  9/ 10 1014.4R
KIPTOPEKE VA     0900      60  180/  9/  9   N/A
CHES BAY BRIDGE  0900   67 60  190/ 11/ 13 1014.1F
CAPE HENRY VA    0900   67     200/  7/ 11   N/A
CHESAPEAKE LGHT  0900   64     200/ 19/ 20 1015.1F
WILLOUBY STN VA  0900   67     210/ 13/ 15 1015.4R
CAPE HENRY BUOY  0912      59                N/A     3/ 9
CAPE CHARLES BUO 0926      58                N/A     3/ 9   2/ 9
OFFSHORE WE BUOY 0921      54                N/A     3/ 9   3/ 9
64NM E OF VA BCH 0950   57 53  200/ 10/ 12 1015.0F   5/11   5/11
DUCK PIER NC     0900   69 66  220/  9/ 12 1015.1F
44100 DUCK FRF   0924      58                N/A     4/ 9   2/11
44056 DUCK FRF   0911      58                N/A     3/ 9   2/11
OREGON INLET NC  0900   68 67  190/  9/ 10 1015.7F
HATTERAS NC      0900   69 68  220/  7/ 10 1016.3F
DIAMOND SHLS NC  0950   73 73  240/ 14/ 16 1016.7R   4/ 9   3/ 9
CAPE LOOKOUT NC  1000   70     210/  8/ 11 1016.6R
$$




USA.gov is the U.S. government's official web portal to all federal, state and local government web resources and services.